timestamp,surface_pressure_avg,surface_temp_avg,battery_voltage,lat,long
2021-09-24 00:09:01+00:00,328.1930000000001,15.1,12.73,47.84626,-54.09684
2021-09-24 00:19:01+00:00,332.9213,15.0,12.73,47.84626,-54.09684
2021-09-24 00:29:01+00:00,331.1964,15.08,12.73,47.84626,-54.09684
2021-09-24 00:39:01+00:00,338.3046,15.0,12.73,47.84626,-54.09684
2021-09-24 00:49:01+00:00,345.3364,14.98,12.73,47.84626,-54.09684
2021-09-24 00:59:01+00:00,343.9012,15.0,12.73,47.84626,-54.09684
2021-09-24 01:09:01+00:00,345.8212,15.1,12.73,47.84626,-54.09684
2021-09-24 01:19:01+00:00,351.8213,15.16,12.73,47.84626,-54.09684
2021-09-24 01:29:01+00:00,350.5345,15.3,12.73,47.84626,-54.09684
2021-09-24 01:39:01+00:00,349.6595,15.2,12.73,47.84626,-54.09684
2021-09-24 01:49:01+00:00,351.7997,15.2,12.73,47.84626,-54.09684
2021-09-24 01:59:01+00:00,348.843,15.3,12.73,47.84626,-54.09684
2021-09-24 02:09:01+00:00,343.0397,15.56,12.73,47.84626,-54.09684
2021-09-24 02:19:01+00:00,341.4631,15.7,12.73,47.84626,-54.09684
2021-09-24 02:29:01+00:00,338.913,15.74,12.73,47.84626,-54.09684
2021-09-24 02:39:01+00:00,331.163,15.76,12.73,47.84626,-54.09684
2021-09-24 02:49:01+00:00,325.0845,15.74,12.73,47.84626,-54.09684
2021-09-24 02:59:01+00:00,323.6929,15.7,12.73,47.84626,-54.09684
2021-09-24 03:09:01+00:00,323.148,15.7,12.73,47.84626,-54.09684
2021-09-24 03:19:01+00:00,316.5563,15.71,12.73,47.84626,-54.09684
2021-09-24 03:29:01+00:00,310.9396,15.77,12.73,47.84626,-54.09684
2021-09-24 03:39:01+00:00,306.033,15.75,12.73,47.84626,-54.09684
2021-09-24 03:49:01+00:00,296.818,15.7,12.73,47.84626,-54.09684
2021-09-24 03:59:01+00:00,287.8431,15.65,12.73,47.84626,-54.09684
2021-09-24 04:09:01+00:00,284.2797,15.5,12.73,47.84626,-54.09684
2021-09-24 04:19:00+00:00,277.9897,15.48,12.73,47.84626,-54.09684
2021-09-24 04:29:00+00:00,270.6081,15.52,12.73,47.84626,-54.09684
2021-09-24 04:39:00+00:00,262.8581,15.58,12.73,47.84626,-54.09684
2021-09-24 04:49:00+00:00,256.5448,15.5,12.73,47.84626,-54.09684
2021-09-24 04:59:00+00:00,248.9098,15.4,12.73,47.84626,-54.09684
2021-09-24 05:09:00+00:00,241.5547,15.4,12.73,47.84626,-54.09684
2021-09-24 05:19:01+00:00,231.9831,15.4,12.65,47.84626,-54.09684
2021-09-24 05:29:01+00:00,220.3998,15.38,12.65,47.84626,-54.09684
2021-09-24 05:39:01+00:00,213.2048,15.38,12.65,47.84626,-54.09684
2021-09-24 05:49:01+00:00,209.3481,15.38,12.65,47.84626,-54.09684
2021-09-24 05:59:01+00:00,202.5981,15.39,12.65,47.84626,-54.09684
2021-09-24 06:09:01+00:00,194.0331,15.4,12.65,47.84626,-54.09684
2021-09-24 06:19:01+00:00,188.9448,15.4,12.65,47.84626,-54.09684
2021-09-24 06:29:01+00:00,186.5331,15.4,12.65,47.84626,-54.09684
2021-09-24 06:39:01+00:00,182.6198,15.4,12.65,47.84626,-54.09684
2021-09-24 06:49:01+00:00,177.8398,15.4,12.65,47.84626,-54.09684
2021-09-24 06:59:01+00:00,174.5331,15.4,12.65,47.84626,-54.09684
2021-09-24 07:09:01+00:00,172.9698,15.4,12.65,47.84626,-54.09684
2021-09-24 07:19:01+00:00,173.8949,15.4,12.65,47.84626,-54.09684
2021-09-24 07:29:01+00:00,173.9281,15.4,12.65,47.84626,-54.09684
2021-09-24 07:39:01+00:00,176.4899,15.4,12.65,47.84626,-54.09684
2021-09-24 07:49:01+00:00,181.7564,15.4,12.65,47.84626,-54.09684
2021-09-24 07:59:01+00:00,184.9381,15.4,12.65,47.84626,-54.09684
2021-09-24 08:09:01+00:00,188.5398,15.4,12.65,47.84626,-54.09684
2021-09-24 08:19:01+00:00,195.8914,15.4,12.65,47.84626,-54.09684
2021-09-24 08:29:01+00:00,202.7281,15.4,12.65,47.84626,-54.09684
2021-09-24 08:39:01+00:00,205.9464,15.4,12.65,47.84626,-54.09684
2021-09-24 08:49:01+00:00,211.4414,15.37,12.65,47.84626,-54.09684
2021-09-24 08:59:01+00:00,219.7581,15.32,12.65,47.84626,-54.09684
2021-09-24 09:09:01+00:00,223.4398,15.3,12.65,47.84626,-54.09684
2021-09-24 09:19:01+00:00,228.5198,15.28,12.65,47.84626,-54.09684
2021-09-24 09:29:01+00:00,237.7064,15.3,12.65,47.84626,-54.09684
2021-09-24 09:39:01+00:00,242.2331,15.3,12.65,47.84626,-54.09684
2021-09-24 09:49:01+00:00,241.8781,15.2,12.65,47.84626,-54.09684
2021-09-24 09:59:01+00:00,247.7348,15.2,12.65,47.84626,-54.09684
2021-09-24 10:09:01+00:00,256.5914,15.2,12.65,47.84626,-54.09684
2021-09-24 10:19:01+00:00,259.9448,15.25,12.65,47.84626,-54.09684
2021-09-24 10:29:01+00:00,261.1731,15.23,12.65,47.84626,-54.09684
2021-09-24 10:39:01+00:00,270.2047,15.21,12.65,47.84626,-54.09684
2021-09-24 10:49:01+00:00,274.8781,15.1,12.65,47.84626,-54.09684
2021-09-24 10:59:01+00:00,275.173,15.1,12.65,47.84626,-54.09684
2021-09-24 11:09:01+00:00,276.2914,15.15,12.65,47.84626,-54.09684
2021-09-24 11:19:00+00:00,285.2364,15.18,12.81,47.84626,-54.09684
2021-09-24 11:29:00+00:00,290.4681,15.18,12.81,47.84626,-54.09684
2021-09-24 11:39:00+00:00,297.6281,15.17,12.81,47.84626,-54.09684
2021-09-24 11:49:00+00:00,304.1414,15.11,12.81,47.84626,-54.09684
2021-09-24 11:59:00+00:00,312.6631,15.14,12.81,47.84626,-54.09684
2021-09-24 12:09:00+00:00,318.1996,15.14,12.81,47.84626,-54.09684
2021-09-24 12:19:01+00:00,323.6995,15.15,13.21,47.84626,-54.09684
2021-09-24 12:29:01+00:00,332.418,15.15,13.21,47.84626,-54.09684
2021-09-24 12:39:01+00:00,338.8362,15.1,13.21,47.84626,-54.09684
2021-09-24 12:49:01+00:00,340.7663,15.11,13.21,47.84626,-54.09684
2021-09-24 12:59:01+00:00,343.6213,15.14,13.21,47.84626,-54.09684
2021-09-24 13:09:01+00:00,348.1796,15.1,13.21,47.84626,-54.09684
2021-09-24 13:19:01+00:00,348.3363,15.1,13.6,47.84626,-54.09684
2021-09-24 13:29:01+00:00,349.48800000000006,15.1,13.6,47.84626,-54.09684
2021-09-24 13:39:01+00:00,350.6495,15.1,13.6,47.84626,-54.09684
2021-09-24 13:49:01+00:00,352.2596,15.1,13.6,47.84626,-54.09684
2021-09-24 13:59:01+00:00,351.6697,15.1,13.6,47.84626,-54.09684
2021-09-24 14:09:01+00:00,350.3113,15.1,13.6,47.84626,-54.09684
2021-09-24 14:19:01+00:00,346.4963,15.1,13.92,47.84626,-54.09684
2021-09-24 14:29:01+00:00,345.043,15.11,13.92,47.84626,-54.09684
2021-09-24 14:39:01+00:00,343.3230000000001,15.16,13.92,47.84626,-54.09684
2021-09-24 14:49:01+00:00,339.6280000000001,15.1,13.92,47.84626,-54.09684
2021-09-24 14:59:01+00:00,336.588,15.0,13.92,47.84626,-54.09684
2021-09-24 15:09:01+00:00,335.2029,14.97,13.92,47.84626,-54.09684
2021-09-24 15:19:00+00:00,334.1797,14.9,14.56,47.84626,-54.09684
2021-09-24 15:29:00+00:00,328.0947,14.9,14.56,47.84626,-54.09684
2021-09-24 15:39:00+00:00,324.3529,14.89,14.56,47.84626,-54.09684
2021-09-24 15:49:00+00:00,322.0563,14.88,14.56,47.84626,-54.09684
2021-09-24 15:59:00+00:00,316.0897,14.88,14.56,47.84626,-54.09684
2021-09-24 16:09:00+00:00,307.0347,14.85,14.56,47.84626,-54.09684
2021-09-24 16:19:01+00:00,304.1315,14.85,14.48,47.84626,-54.09684
2021-09-24 16:29:01+00:00,298.7681,14.82,14.48,47.84626,-54.09684
2021-09-24 16:39:01+00:00,288.6531,14.85,14.48,47.84626,-54.09684
2021-09-24 16:49:01+00:00,281.4664,14.88,14.48,47.84626,-54.09684
2021-09-24 16:59:01+00:00,274.618,14.74,14.48,47.84626,-54.09684
2021-09-24 17:09:01+00:00,266.3014,15.03,14.48,47.84626,-54.09684
2021-09-24 17:19:01+00:00,258.4114,15.05,14.32,47.84626,-54.09684
2021-09-24 17:29:01+00:00,252.688,15.05,14.32,47.84626,-54.09684
2021-09-24 17:39:01+00:00,241.1747,15.1,14.32,47.84626,-54.09684
2021-09-24 17:49:01+00:00,230.4098,15.15,14.32,47.84626,-54.09684
2021-09-24 17:59:01+00:00,225.5381,15.18,14.32,47.84626,-54.09684
2021-09-24 18:09:01+00:00,219.1698,15.2,14.32,47.84626,-54.09684
2021-09-24 18:19:01+00:00,206.3298,15.21,14.16,47.84626,-54.09684
2021-09-24 18:29:01+00:00,200.3931,15.25,14.16,47.84626,-54.09684
2021-09-24 18:39:01+00:00,200.2764,15.3,14.16,47.84626,-54.09684
2021-09-24 18:49:01+00:00,193.7731,15.4,14.16,47.84626,-54.09684
2021-09-24 18:59:01+00:00,184.3681,15.4,14.16,47.84626,-54.09684
2021-09-24 19:09:01+00:00,182.2765,15.4,14.16,47.84626,-54.09684
2021-09-24 19:19:01+00:00,181.8015,15.4,13.84,47.84626,-54.09684
2021-09-24 19:29:01+00:00,176.8548,15.4,13.84,47.84626,-54.09684
2021-09-24 19:39:01+00:00,174.6581,15.4,13.84,47.84626,-54.09684
2021-09-24 19:49:01+00:00,177.3582,15.4,13.84,47.84626,-54.09684
2021-09-24 19:59:01+00:00,176.1548,15.4,13.84,47.84626,-54.09684
2021-09-24 20:09:01+00:00,175.0215,15.2,13.84,47.84626,-54.09684
2021-09-24 20:19:01+00:00,181.6198,15.26,13.6,47.84626,-54.09684
2021-09-24 20:29:01+00:00,186.8216,15.36,13.6,47.84626,-54.09684
2021-09-24 20:39:01+00:00,185.6864,15.4,13.6,47.84626,-54.09684
2021-09-24 20:49:01+00:00,193.1515,15.4,13.6,47.84626,-54.09684
2021-09-24 20:59:01+00:00,206.1514,15.4,13.6,47.84626,-54.09684
2021-09-24 21:09:01+00:00,208.4932,15.0,13.6,47.84626,-54.09684
2021-09-24 21:19:01+00:00,209.1615,15.0,13.29,47.84626,-54.09684
2021-09-24 21:29:01+00:00,217.1148,15.1,13.29,47.84626,-54.09684
2021-09-24 21:39:01+00:00,225.3465,15.09,13.29,47.84626,-54.09684
2021-09-24 21:49:01+00:00,226.2196,14.79,13.29,47.84626,-54.09684
2021-09-24 21:59:01+00:00,228.8031,14.8,13.29,47.84626,-54.09684
2021-09-24 22:09:01+00:00,238.2431,14.9,13.29,47.84626,-54.09684
2021-09-24 22:19:01+00:00,241.9564,14.92,12.97,47.84626,-54.09684
2021-09-24 22:29:01+00:00,241.0979,14.9,12.97,47.84626,-54.09684
2021-09-24 22:39:01+00:00,246.9964,14.99,12.97,47.84626,-54.09684
2021-09-24 22:49:01+00:00,254.3647,14.8,12.97,47.84626,-54.09684
2021-09-24 22:59:01+00:00,256.5281,14.73,12.97,47.84626,-54.09684
2021-09-24 23:09:01+00:00,259.5281,14.7,12.97,47.84626,-54.09684
2021-09-24 23:19:01+00:00,267.4514,14.69,12.73,47.84626,-54.09684
2021-09-24 23:29:01+00:00,271.9815,14.7,12.73,47.84626,-54.09684
2021-09-24 23:39:01+00:00,272.2798,14.7,12.73,47.84626,-54.09684
2021-09-24 23:49:01+00:00,278.9481,14.62,12.73,47.84626,-54.09684
2021-09-24 23:59:01+00:00,287.8064,14.54,12.73,47.84626,-54.09684
